[[{"header":{"parameterUnit":"m.s-1","parameterCategory":1,"la1":30.2991,"la2":30.254,"lo1":-89.0895,"lo2":-89.0444,"dy":0.0017,"dx":0.0017,"nx":28,"ny":28,"refTime":"2024-05-11T09:00:00:Z","depth":0,"parameterNumber":2,"parameterNumberName":"U-component_of_WINDS"},"data":[0,0,0,0,0,0,0,0,0,0,0,0,0,0,0,0,0,0,0,0,0,0,0,0,0,0,0,0,0,0,0,0,0,0,0,0,0,0,0,0,0,0,0,0,0,0,0,0,0,0,0,0,0,0,0,0,0,0,-5.0456,-5.0456,0,-5.0412,-5.0411,-5.0411,-5.0208,-5.0203,-5.0198,-5.0194,-5.0151,-5.0155,-5.0158,0,0,0,0,0,0,0,0,0,0,0,0,0,-5.0369,-5.0372,-5.0456,-5.0456,-5.0455,-5.0412,-5.0411,-5.0411,-5.0209,-5.0203,-5.0197,-5.0192,-5.015,-5.0154,-5.0158,0,0,0,0,0,0,0,0,0,0,0,0,0,-5.0374,-5.0372,-5.0456,-5.0349,-5.0339,-5.0412,-5.0411,-5.041,-5.021,-5.0203,-5.0196,-5.0189,-5.0149,-5.0154,-5.0159,-5.0333,0,0,-5.0174,-5.0176,0,0,0,0,0,0,0,0,-5.0374,-5.0378,-5.0365,-5.0357,-5.0345,-5.0308,-5.0364,-5.0384,-5.0212,-5.0259,-5.0194,-5.0185,-5.021,-5.0209,-5.0216,-5.0331,-5.0329,-5.0174,-5.0177,-5.018,-5.0181,0,0,0,0,0,0,0,-5.0374,-5.0378,-5.0439,-5.0366,-5.0353,-5.0304,-5.0297,-5.0367,-5.0275,-5.0254,-5.0239,-5.0237,-5.0203,-5.0212,-5.0214,-5.0328,-5.0174,-5.0179,-5.0182,-5.0184,-5.0581,-5.0588,0,0,0,0,0,0,-5.0388,-5.0379,-5.044,-5.0437,-5.0342,-5.0311,-5.0303,-5.0327,-5.0274,-5.0259,-5.0243,-5.0228,-5.0207,-5.0208,-5.0212,-5.041,-5.0179,-5.0184,-5.0187,-5.0574,-5.0583,-5.0591,0,0,0,0,0,0,-5.0387,-5.0396,-5.0442,-5.0404,-5.0406,-5.032,-5.0349,-5.033,-5.0339,-5.0265,-5.0248,-5.027,-5.0202,-5.0205,-5.0303,-5.0406,-5.0186,-5.0191,-5.0565,-5.0576,-5.0587,-5.0809,0,0,0,0,0,0,-5.0386,-5.0397,-5.0461,-5.0407,-5.0409,-5.0534,-5.0355,-5.0334,-5.0348,-5.0327,-5.0285,-5.0271,-5.0196,-5.0297,-5.0308,-5.0408,-5.0195,-5.0555,-5.057,-5.0583,-5.0792,-5.0827,-5.0856,0,0,0,0,0,-5.0383,-5.0527,-5.0465,-5.0474,-5.0488,-5.0541,-5.0542,-5.0451,-5.0357,-5.0421,-5.0374,-5.0273,-5.0393,-5.0309,-5.032,-5.0423,-5.0548,-5.0566,-5.0582,-5.0778,-5.082,-5.0856,0,0,0,0,0,0,-5.0596,-5.0518,-5.0449,-5.0579,-5.0568,-5.0506,-5.0584,-5.0499,-5.0515,-5.0495,-5.0383,-5.0376,-5.0491,-5.0467,-5.0374,-5.0588,-5.0454,-5.0474,-5.0599,-5.0638,-5.067,-5.0672,-5.0199,0,0,0,0,0,-5.0658,-5.0706,-5.0635,-5.0757,-5.0755,-5.0672,-5.0691,-5.0622,-5.0607,-5.0601,-5.056,-5.055,-5.0585,-5.061,-5.0639,-5.0789,-5.0776,-5.0865,-5.0897,-5.0924,-5.0942,-5.1018,-5.1057,-5.0647,-5.0647,-5.0646,0,0,-5.0787,-5.075,-5.0787,-5.0799,-5.0782,-5.0835,-5.0669,-5.0732,-5.077,-5.0611,-5.07,-5.0671,-5.0652,-5.0777,-5.083,-5.0761,-5.1053,-5.0946,-5.0967,-5.0971,-5.104,-5.1079,-5.1113,-5.0659,-5.0656,-5.0655,0,0,-5.1047,-5.1025,-5.1122,-5.1109,-5.1085,-5.1029,-5.1053,-5.1004,-5.0978,-5.1066,-5.0947,-5.0992,-5.1055,-5.1046,-5.105,-5.1308,-5.1215,-5.132,-5.1487,-5.1562,-5.1595,-5.1623,-5.1713,-5.1747,-5.1339,-5.134,-5.134,0,-5.121,-5.1284,-5.1184,-5.1255,-5.1263,-5.1121,-5.1219,-5.1211,-5.1199,-5.1208,-5.1131,-5.1206,-5.1184,-5.1304,-5.1367,-5.1375,-5.1399,-5.1323,-5.1598,-5.1625,-5.165,-5.1735,-5.1769,-5.1352,-5.1351,-5.135,-5.1348,0,-5.1485,-5.1538,-5.162,-5.161,-5.1628,-5.1713,-5.1626,-5.1656,-5.1587,-5.1539,-5.1631,-5.1599,-5.1617,-5.1641,-5.1575,-5.1752,-5.171,-5.1618,-5.148,-5.1703,-5.1781,-5.1813,-5.1371,-5.1366,-5.1362,-5.1359,0,0,-5.1877,-5.181,-5.1842,-5.1834,-5.1798,-5.1838,-5.1916,-5.1933,-5.1961,-5.1958,-5.202,-5.2078,-5.1991,-5.1996,-5.1927,-5.1994,-5.2199,-5.1893,-5.189,-5.1949,-5.2391,-5.2459,-5.2499,-5.2138,-5.2144,-5.2149,-5.2392,0,-5.2124,-5.2251,-5.2164,-5.2307,-5.2354,-5.222,-5.2288,-5.2274,-5.2232,-5.2267,-5.222,-5.2261,-5.2146,-5.2147,-5.2208,-5.2161,-5.2286,-5.2143,-5.2195,-5.2198,-5.2201,-5.2539,-5.2611,-5.2842,-5.2422,-5.2427,-5.2431,0,-5.2429,-5.2437,-5.2584,-5.2537,-5.2553,-5.2616,-5.2624,-5.2659,-5.2641,-5.2605,-5.2611,-5.2525,-5.2599,-5.2466,-5.2566,-5.2471,-5.2487,-5.2468,-5.2475,-5.2474,-5.2326,-5.2546,-5.2914,-5.2948,-5.2478,-5.2474,-5.2471,0,-5.2697,-5.2746,-5.2839,-5.2838,-5.2786,-5.2833,-5.2814,-5.2788,-5.2803,-5.2812,-5.282,-5.2838,-5.2848,-5.2864,-5.2785,-5.2696,-5.2896,-5.2756,-5.2868,-5.2871,-5.2914,-5.2912,-5.3288,-5.293,-5.2929,-5.2929,-5.2928,0,-5.2981,-5.3076,-5.2959,-5.3016,-5.3119,-5.3018,-5.3123,-5.309,-5.3068,-5.3117,-5.3004,-5.3053,-5.2947,-5.2985,-5.2925,-5.3017,-5.3023,-5.2996,-5.2978,-5.3005,-5.3008,-5.3012,-5.2993,-5.2938,-5.2936,-5.2934,-5.2933,0,-5.3297,-5.3223,-5.3315,-5.3258,-5.3246,-5.3324,-5.3276,-5.3327,-5.3277,-5.3341,-5.335,-5.3273,-5.3313,-5.3236,-5.3266,-5.3225,-5.3354,-5.3313,-5.336,-5.3347,-5.3462,-5.3452,-5.3852,-5.3899,-5.3514,-5.3518,-5.3521,0,-5.3482,-5.3551,-5.3501,-5.3525,-5.3511,-5.3552,-5.3567,-5.3472,-5.3492,-5.3476,-5.353,-5.3559,-5.3577,-5.3647,-5.3594,-5.3617,-5.3573,-5.3712,-5.3576,-5.36,-5.3573,-5.3569,-5.3575,-5.374,-5.3745,-5.3748,-5.3752,0,-5.3817,-5.3776,-5.3801,-5.3814,-5.3834,-5.384,-5.3838,-5.3865,-5.3763,-5.3793,-5.383,-5.3845,-5.3875,-5.3905,-5.3915,-5.3896,-5.3808,-5.3795,-5.3822,-5.3848,-5.3872,-5.3859,-5.3434,-5.3786,-5.3782,-5.378,-5.3778,-5.3777,-5.407,-5.4125,-5.4098,-5.413,-5.4118,-5.4118,-5.4163,-5.4119,-5.4148,-5.4163,-5.4106,-5.4158,-5.4137,-5.4141,-5.4132,-5.4171,-5.4109,-5.4148,-5.4158,-5.4168,-5.4186,-5.3868,-5.4173,-5.4172,-5.4171,-5.417,-5.4169,0,-5.4397,-5.4373,-5.4403,-5.4402,-5.4428,-5.4341,-5.4335,-5.4362,-5.4407,-5.4395,-5.4415,-5.4459,-5.4489,-5.4439,-5.446,-5.4501,-5.4461,-5.451,-5.4505,-5.4502,-5.4241,-5.4215,-5.4542,-5.4542,-5.4542,-5.4542,-5.4542,-5.4542,-5.457,-5.4657,-5.4614,-5.4695,-5.467,-5.4717,-5.4721,-5.4721,-5.471,-5.4764,-5.4787,-5.4754,-5.4727,-5.4745,-5.4769,-5.4754,-5.4766,-5.4829,-5.48,-5.4557,-5.452,-5.4485,-5.446,-5.4833,-5.4834,-5.5056,-5.5058,-5.506]},{"header":{"parameterUnit":"m.s-1","parameterCategory":1,"la1":30.2991,"la2":30.254,"lo1":-89.0895,"lo2":-89.0444,"dy":0.0017,"dx":0.0017,"nx":28,"ny":28,"refTime":"2024-05-11T09:00:00:Z","depth":0,"parameterNumber":3,"parameterNumberName":"V-component_of_WINDS"},"data":[0,0,0,0,0,0,0,0,0,0,0,0,0,0,0,0,0,0,0,0,0,0,0,0,0,0,0,0,0,0,0,0,0,0,0,0,0,0,0,0,0,0,0,0,0,0,0,0,0,0,0,0,0,0,0,0,0,0,-1.6581,-1.6581,0,-1.6578,-1.6578,-1.6578,-1.6541,-1.654,-1.6539,-1.6538,-1.6535,-1.6535,-1.6536,0,0,0,0,0,0,0,0,0,0,0,0,0,-1.6554,-1.6554,-1.6581,-1.6581,-1.6581,-1.6578,-1.6578,-1.6578,-1.6541,-1.654,-1.6539,-1.6537,-1.6534,-1.6535,-1.6536,0,0,0,0,0,0,0,0,0,0,0,0,0,-1.656,-1.6555,-1.6581,-1.6562,-1.656,-1.6578,-1.6578,-1.6578,-1.6541,-1.654,-1.6538,-1.6537,-1.6534,-1.6535,-1.6536,-1.6572,0,0,-1.654,-1.6541,0,0,0,0,0,0,0,0,-1.6559,-1.6561,-1.6565,-1.6564,-1.6562,-1.6558,-1.6567,-1.6576,-1.6541,-1.6548,-1.6538,-1.6536,-1.6544,-1.6544,-1.6547,-1.6572,-1.6572,-1.654,-1.6541,-1.6541,-1.6542,0,0,0,0,0,0,0,-1.6559,-1.6561,-1.658,-1.6565,-1.6563,-1.6553,-1.6553,-1.6569,-1.6554,-1.6548,-1.6545,-1.6545,-1.6542,-1.6545,-1.6546,-1.6572,-1.654,-1.6541,-1.6542,-1.6542,-1.6624,-1.6625,0,0,0,0,0,0,-1.6561,-1.6561,-1.658,-1.658,-1.6557,-1.6555,-1.6554,-1.6561,-1.6554,-1.6551,-1.6546,-1.6543,-1.6544,-1.6545,-1.6546,-1.6586,-1.6541,-1.6543,-1.6543,-1.6623,-1.6624,-1.6626,0,0,0,0,0,0,-1.6561,-1.6563,-1.658,-1.6569,-1.6571,-1.6557,-1.6565,-1.6562,-1.6564,-1.6553,-1.655,-1.6552,-1.6543,-1.6544,-1.6565,-1.6585,-1.6543,-1.6544,-1.6621,-1.6623,-1.6625,-1.6666,0,0,0,0,0,0,-1.656,-1.6564,-1.6577,-1.657,-1.6572,-1.66,-1.6566,-1.6562,-1.6567,-1.6563,-1.6557,-1.6555,-1.6542,-1.6564,-1.6567,-1.6586,-1.6545,-1.6619,-1.6622,-1.6625,-1.6663,-1.667,-1.6675,0,0,0,0,0,-1.6559,-1.659,-1.6578,-1.6581,-1.6589,-1.6602,-1.6602,-1.6587,-1.6568,-1.6582,-1.6574,-1.6555,-1.6583,-1.6566,-1.6569,-1.6589,-1.6618,-1.6621,-1.6624,-1.666,-1.6668,-1.6675,0,0,0,0,0,0,-1.66,-1.6588,-1.6576,-1.6604,-1.6604,-1.6595,-1.6612,-1.6596,-1.6601,-1.6597,-1.6577,-1.6576,-1.66,-1.6597,-1.6579,-1.6622,-1.6597,-1.6601,-1.6623,-1.6631,-1.6637,-1.6637,-1.6546,0,0,0,0,0,-1.6612,-1.6624,-1.6613,-1.6639,-1.664,-1.6626,-1.6631,-1.6619,-1.6618,-1.6617,-1.6611,-1.6611,-1.6619,-1.6625,-1.6632,-1.6663,-1.666,-1.6678,-1.6684,-1.6689,-1.6692,-1.6706,-1.6713,-1.6637,-1.6637,-1.6637,0,0,-1.6638,-1.6633,-1.6642,-1.6647,-1.6646,-1.6657,-1.6626,-1.664,-1.6649,-1.662,-1.6639,-1.6634,-1.6632,-1.6658,-1.6669,-1.6656,-1.6713,-1.6693,-1.6697,-1.6698,-1.671,-1.6718,-1.6724,-1.6639,-1.6639,-1.6638,0,0,-1.669,-1.6688,-1.6709,-1.6708,-1.6705,-1.6695,-1.67,-1.6693,-1.6689,-1.6708,-1.6686,-1.6695,-1.671,-1.6709,-1.6711,-1.6761,-1.6743,-1.6764,-1.6795,-1.6809,-1.6815,-1.682,-1.6837,-1.6843,-1.6767,-1.6768,-1.6768,0,-1.6722,-1.6739,-1.6722,-1.6737,-1.6739,-1.6713,-1.6733,-1.6733,-1.6733,-1.6735,-1.6721,-1.6738,-1.6735,-1.6759,-1.6771,-1.6774,-1.6778,-1.6764,-1.6816,-1.6821,-1.6825,-1.6841,-1.6847,-1.677,-1.677,-1.6769,-1.6769,0,-1.6778,-1.679,-1.6807,-1.6807,-1.6811,-1.6829,-1.6813,-1.682,-1.6807,-1.6799,-1.6817,-1.6813,-1.6818,-1.6823,-1.6811,-1.6845,-1.6836,-1.6819,-1.6793,-1.6835,-1.6849,-1.6855,-1.6773,-1.6772,-1.6772,-1.6771,0,0,-1.6856,-1.6845,-1.6851,-1.685,-1.6845,-1.6853,-1.6869,-1.6874,-1.6879,-1.688,-1.6892,-1.6905,-1.6888,-1.689,-1.6877,-1.689,-1.6928,-1.6871,-1.687,-1.688,-1.6963,-1.6975,-1.6982,-1.6916,-1.6917,-1.6918,-1.6962,0,-1.6905,-1.6931,-1.6915,-1.6944,-1.6953,-1.6928,-1.6942,-1.694,-1.6932,-1.6939,-1.693,-1.6939,-1.6918,-1.6918,-1.6929,-1.6921,-1.6944,-1.6917,-1.6926,-1.6927,-1.6926,-1.6989,-1.7002,-1.7044,-1.6968,-1.6969,-1.6969,0,-1.6965,-1.6968,-1.6997,-1.6988,-1.6992,-1.7004,-1.7006,-1.7013,-1.701,-1.7003,-1.7005,-1.6988,-1.7003,-1.6977,-1.6996,-1.6978,-1.6981,-1.6977,-1.6978,-1.6978,-1.695,-1.6989,-1.7058,-1.7063,-1.6978,-1.6978,-1.6977,0,-1.7017,-1.7028,-1.7046,-1.7046,-1.7037,-1.7046,-1.7042,-1.7037,-1.704,-1.7042,-1.7043,-1.7047,-1.7049,-1.7052,-1.7036,-1.702,-1.7056,-1.703,-1.705,-1.7051,-1.7058,-1.7058,-1.7127,-1.7062,-1.7062,-1.7062,-1.7062,0,-1.7072,-1.7091,-1.7069,-1.708,-1.71,-1.7081,-1.7101,-1.7095,-1.709,-1.7099,-1.7078,-1.7087,-1.7067,-1.7074,-1.7062,-1.7078,-1.708,-1.7074,-1.707,-1.7075,-1.7076,-1.7076,-1.7072,-1.7064,-1.7064,-1.7063,-1.7063,0,-1.7133,-1.7119,-1.7137,-1.7126,-1.7124,-1.7139,-1.7129,-1.7139,-1.7129,-1.7141,-1.7143,-1.7128,-1.7134,-1.712,-1.7125,-1.7117,-1.7139,-1.7132,-1.714,-1.7137,-1.7157,-1.7155,-1.7228,-1.7236,-1.7168,-1.7168,-1.7169,0,-1.7169,-1.7182,-1.7172,-1.7177,-1.7174,-1.7182,-1.7184,-1.7166,-1.717,-1.7166,-1.7176,-1.718,-1.7183,-1.7195,-1.7184,-1.7187,-1.7179,-1.7204,-1.7179,-1.7183,-1.7177,-1.7176,-1.7176,-1.7209,-1.721,-1.721,-1.7211,0,-1.7233,-1.7225,-1.7229,-1.7231,-1.7235,-1.7235,-1.7234,-1.7239,-1.722,-1.7225,-1.7231,-1.7233,-1.7237,-1.7241,-1.7242,-1.7238,-1.7221,-1.7219,-1.7223,-1.7227,-1.7231,-1.7228,-1.7152,-1.7217,-1.7216,-1.7216,-1.7216,-1.7215,-1.7281,-1.7291,-1.7285,-1.729,-1.7287,-1.7287,-1.7295,-1.7286,-1.729,-1.7292,-1.7281,-1.7289,-1.7284,-1.7283,-1.7281,-1.7286,-1.7275,-1.7282,-1.7283,-1.7285,-1.7287,-1.7231,-1.7287,-1.7286,-1.7286,-1.7286,-1.7286,0,-1.7342,-1.7337,-1.7342,-1.7341,-1.7345,-1.7328,-1.7326,-1.733,-1.7337,-1.7334,-1.7337,-1.7343,-1.7347,-1.7337,-1.7339,-1.7345,-1.7337,-1.7346,-1.7345,-1.7344,-1.7298,-1.7293,-1.7352,-1.7352,-1.7352,-1.7352,-1.7352,-1.7352,-1.7375,-1.739,-1.7381,-1.7395,-1.7389,-1.7396,-1.7396,-1.7395,-1.7392,-1.74,-1.7403,-1.7396,-1.7389,-1.7391,-1.7393,-1.739,-1.7391,-1.7402,-1.7396,-1.7354,-1.7347,-1.7341,-1.7336,-1.7403,-1.7403,-1.7441,-1.7441,-1.7442]}]]